Time,TemperatureF,DewpointF,PressureIn,WindDirection,WindDirectionDegrees,WindSpeedMPH,WindSpeedGustMPH,Humidity,HourlyPrecipIn,Conditions,Clouds,dailyrainin,SoftwareType,DateUTC
2013-07-13 00:09:00,80.1,72.0,29.94,ESE,115,0.0,0.0,77,0.00,,,0.00,weatherlink.com 1.10,2013-07-13 05:09:00,
2013-07-13 00:24:00,80.0,72.0,29.95,ESE,115,0.0,1.0,76,0.00,,,0.00,weatherlink.com 1.10,2013-07-13 05:24:00,
2013-07-13 00:39:00,80.1,72.0,29.95,ESE,115,0.0,0.0,77,0.00,,,0.00,weatherlink.com 1.10,2013-07-13 05:39:00,
2013-07-13 00:54:00,79.5,72.0,29.95,ESE,115,0.0,0.0,77,0.00,,,0.00,weatherlink.com 1.10,2013-07-13 05:54:00,
2013-07-13 01:09:00,79.0,72.0,29.95,ESE,115,0.0,0.0,80,0.00,,,0.00,weatherlink.com 1.10,2013-07-13 06:09:00,
2013-07-13 01:24:00,78.6,72.0,29.95,ESE,115,0.0,0.0,81,0.00,,,0.00,weatherlink.com 1.10,2013-07-13 06:24:00,
2013-07-13 01:39:00,78.0,72.0,29.95,ESE,115,0.0,0.0,82,0.00,,,0.00,weatherlink.com 1.10,2013-07-13 06:39:00,
2013-07-13 01:54:00,77.7,72.0,29.95,ESE,115,0.0,0.0,82,0.00,,,0.00,weatherlink.com 1.10,2013-07-13 06:54:00,
2013-07-13 02:09:00,77.6,72.0,29.95,ESE,115,0.0,0.0,82,0.00,,,0.00,weatherlink.com 1.10,2013-07-13 07:09:00,
2013-07-13 02:24:00,77.6,72.0,29.94,ESE,115,0.0,0.0,82,0.00,,,0.00,weatherlink.com 1.10,2013-07-13 07:24:00,
2013-07-13 02:39:00,77.6,71.0,29.94,ESE,115,0.0,0.0,81,0.00,,,0.00,weatherlink.com 1.10,2013-07-13 07:39:00,
2013-07-13 02:54:00,77.4,71.0,29.94,ESE,115,0.0,0.0,81,0.00,,,0.00,weatherlink.com 1.10,2013-07-13 07:54:00,
2013-07-13 03:09:00,77.3,71.0,29.94,ESE,115,0.0,0.0,82,0.00,,,0.00,weatherlink.com 1.10,2013-07-13 08:09:00,
2013-07-13 03:24:00,77.0,72.0,29.94,ESE,115,0.0,0.0,83,0.00,,,0.00,weatherlink.com 1.10,2013-07-13 08:24:00,
2013-07-13 03:39:00,76.6,71.0,29.94,ESE,115,0.0,0.0,83,0.00,,,0.00,weatherlink.com 1.10,2013-07-13 08:39:00,
2013-07-13 03:54:00,76.2,71.0,29.94,ESE,115,0.0,0.0,83,0.00,,,0.00,weatherlink.com 1.10,2013-07-13 08:54:00,
2013-07-13 04:09:00,75.8,70.0,29.94,ESE,115,0.0,0.0,83,0.00,,,0.00,weatherlink.com 1.10,2013-07-13 09:09:00,
2013-07-13 04:24:00,75.7,70.0,29.94,ESE,115,0.0,0.0,83,0.00,,,0.00,weatherlink.com 1.10,2013-07-13 09:24:00,
2013-07-13 04:39:00,75.8,70.0,29.94,ESE,115,0.0,0.0,83,0.00,,,0.00,weatherlink.com 1.10,2013-07-13 09:39:00,
2013-07-13 04:54:00,75.6,70.0,29.94,ESE,115,0.0,1.0,82,0.00,,,0.00,weatherlink.com 1.10,2013-07-13 09:54:00,
2013-07-13 05:09:00,75.6,69.0,29.95,ESE,115,0.0,0.0,81,0.00,,,0.00,weatherlink.com 1.10,2013-07-13 10:09:00,
2013-07-13 05:24:00,75.5,69.0,29.95,ESE,115,0.0,0.0,80,0.00,,,0.00,weatherlink.com 1.10,2013-07-13 10:24:00,
2013-07-13 05:39:00,75.3,69.0,29.95,ESE,115,0.0,0.0,80,0.00,,,0.00,weatherlink.com 1.10,2013-07-13 10:39:00,
2013-07-13 05:54:00,75.1,68.0,29.96,ESE,115,0.0,1.0,79,0.00,,,0.00,weatherlink.com 1.10,2013-07-13 10:54:00,
2013-07-13 06:09:00,74.9,68.0,29.96,ESE,115,0.0,1.0,79,0.00,,,0.00,weatherlink.com 1.10,2013-07-13 11:09:00,
2013-07-13 06:24:00,74.5,67.0,29.97,ESE,115,0.0,0.0,78,0.00,,,0.00,weatherlink.com 1.10,2013-07-13 11:24:00,
2013-07-13 06:39:00,74.4,68.0,29.97,ESE,115,0.0,0.0,79,0.00,,,0.00,weatherlink.com 1.10,2013-07-13 11:39:00,
2013-07-13 06:54:00,74.4,68.0,29.97,ESE,115,0.0,0.0,80,0.00,,,0.00,weatherlink.com 1.10,2013-07-13 11:54:00,
2013-07-13 07:09:00,74.4,68.0,29.98,ESE,115,0.0,0.0,81,0.00,,,0.00,weatherlink.com 1.10,2013-07-13 12:09:00,
2013-07-13 07:24:00,74.3,68.0,29.98,ESE,115,0.0,0.0,81,0.00,,,0.00,weatherlink.com 1.10,2013-07-13 12:24:00,
2013-07-13 07:39:00,74.5,69.0,29.99,ESE,115,0.0,0.0,82,0.00,,,0.00,weatherlink.com 1.10,2013-07-13 12:39:00,
2013-07-13 07:55:00,75.1,69.0,29.99,ESE,115,0.0,0.0,82,0.00,,,0.00,weatherlink.com 1.10,2013-07-13 12:55:00,
2013-07-13 08:10:00,75.7,68.0,30.00,ESE,115,0.0,1.0,78,0.00,,,0.00,weatherlink.com 1.10,2013-07-13 13:10:00,
2013-07-13 08:25:00,76.4,69.0,30.00,ESE,115,0.0,0.0,77,0.00,,,0.00,weatherlink.com 1.10,2013-07-13 13:25:00,
2013-07-13 08:40:00,77.6,69.0,30.00,ESE,115,0.0,1.0,74,0.00,,,0.00,weatherlink.com 1.10,2013-07-13 13:40:00,
2013-07-13 08:55:00,79.4,69.0,30.00,ESE,110,0.0,2.0,70,0.00,,,0.00,weatherlink.com 1.10,2013-07-13 13:55:00,
2013-07-13 09:10:00,80.7,70.0,30.00,ESE,110,0.0,1.0,69,0.00,,,0.00,weatherlink.com 1.10,2013-07-13 14:10:00,
2013-07-13 09:25:00,82.9,68.0,30.00,ESE,110,0.0,1.0,62,0.00,,,0.00,weatherlink.com 1.10,2013-07-13 14:25:00,
2013-07-13 09:40:00,83.9,65.0,30.00,SE,142,0.0,2.0,53,0.00,,,0.00,weatherlink.com 1.10,2013-07-13 14:40:00,
2013-07-13 09:55:00,84.4,66.0,30.00,NW,309,1.0,2.0,55,0.00,,,0.00,weatherlink.com 1.10,2013-07-13 14:55:00,
2013-07-13 10:10:00,86.2,64.0,30.00,SE,137,0.0,3.0,48,0.00,,,0.00,weatherlink.com 1.10,2013-07-13 15:10:00,
2013-07-13 10:25:00,87.1,64.0,30.00,SE,138,1.0,4.0,47,0.00,,,0.00,weatherlink.com 1.10,2013-07-13 15:25:00,
2013-07-13 10:40:00,87.3,66.0,29.99,East,101,0.0,2.0,50,0.00,,,0.00,weatherlink.com 1.10,2013-07-13 15:40:00,
2013-07-13 10:55:00,88.8,65.0,29.99,SSE,150,0.0,3.0,45,0.00,,,0.00,weatherlink.com 1.10,2013-07-13 15:55:00,
2013-07-13 11:10:00,89.9,65.0,29.99,ESE,113,1.0,3.0,44,0.00,,,0.00,weatherlink.com 1.10,2013-07-13 16:10:00,
2013-07-13 11:25:00,89.7,64.0,29.98,NW,321,1.0,4.0,42,0.00,,,0.00,weatherlink.com 1.10,2013-07-13 16:25:00,
2013-07-13 11:40:00,90.7,65.0,29.98,SE,130,0.0,1.0,43,0.00,,,0.00,weatherlink.com 1.10,2013-07-13 16:40:00,
2013-07-13 11:55:00,91.0,64.0,29.98,ESE,105,2.0,3.0,40,0.00,,,0.00,weatherlink.com 1.10,2013-07-13 16:55:00,
2013-07-13 12:10:00,91.0,66.0,29.97,West,269,1.0,5.0,44,0.00,,,0.00,weatherlink.com 1.10,2013-07-13 17:10:00,
2013-07-13 12:25:00,91.1,66.0,29.97,NW,326,0.0,5.0,43,0.00,,,0.00,weatherlink.com 1.10,2013-07-13 17:25:00,
2013-07-13 12:40:00,92.3,64.0,29.96,ESE,119,1.0,3.0,39,0.00,,,0.00,weatherlink.com 1.10,2013-07-13 17:40:00,
2013-07-13 12:55:00,94.4,66.0,29.96,SE,144,0.0,2.0,39,0.00,,,0.00,weatherlink.com 1.10,2013-07-13 17:55:00,
2013-07-13 13:10:00,93.3,64.0,29.96,WNW,288,1.0,5.0,38,0.00,,,0.00,weatherlink.com 1.10,2013-07-13 18:10:00,
2013-07-13 13:25:00,94.6,68.0,29.95,SW,217,0.0,4.0,42,0.00,,,0.00,weatherlink.com 1.10,2013-07-13 18:25:00,
2013-07-13 13:40:00,95.4,66.0,29.95,South,169,0.0,4.0,38,0.00,,,0.00,weatherlink.com 1.10,2013-07-13 18:40:00,
2013-07-13 13:55:00,95.4,65.0,29.94,SW,236,2.0,4.0,37,0.00,,,0.00,weatherlink.com 1.10,2013-07-13 18:55:00,
2013-07-13 14:10:00,94.8,65.0,29.93,South,184,0.0,6.0,38,0.00,,,0.00,weatherlink.com 1.10,2013-07-13 19:10:00,
2013-07-13 14:25:00,95.2,66.0,29.93,North,9,1.0,3.0,38,0.00,,,0.00,weatherlink.com 1.10,2013-07-13 19:25:00,
2013-07-13 14:40:00,94.8,63.0,29.92,NNW,329,1.0,7.0,35,0.00,,,0.00,weatherlink.com 1.10,2013-07-13 19:40:00,
2013-07-13 14:55:00,95.3,60.0,29.92,NNW,330,0.0,5.0,31,0.00,,,0.00,weatherlink.com 1.10,2013-07-13 19:55:00,
2013-07-13 15:11:00,96.1,61.0,29.91,ENE,62,0.0,4.0,31,0.00,,,0.00,weatherlink.com 1.10,2013-07-13 20:11:00,
2013-07-13 15:26:00,96.5,57.0,29.91,ENE,71,0.0,3.0,27,0.00,,,0.00,weatherlink.com 1.10,2013-07-13 20:26:00,
2013-07-13 15:41:00,95.1,57.0,29.90,NNW,335,1.0,7.0,28,0.00,,,0.00,weatherlink.com 1.10,2013-07-13 20:41:00,
2013-07-13 15:56:00,95.4,58.0,29.90,NE,49,1.0,4.0,29,0.00,,,0.00,weatherlink.com 1.10,2013-07-13 20:56:00,
2013-07-13 16:11:00,95.6,53.0,29.90,North,5,0.0,4.0,24,0.00,,,0.00,weatherlink.com 1.10,2013-07-13 21:11:00,
2013-07-13 16:26:00,95.7,57.0,29.90,NNW,340,0.0,4.0,27,0.00,,,0.00,weatherlink.com 1.10,2013-07-13 21:26:00,
2013-07-13 16:41:00,96.2,55.0,29.89,NE,55,1.0,2.0,25,0.00,,,0.00,weatherlink.com 1.10,2013-07-13 21:41:00,
2013-07-13 16:56:00,94.9,61.0,29.90,South,191,0.0,2.0,32,0.00,,,0.00,weatherlink.com 1.10,2013-07-13 21:56:00,
2013-07-13 17:11:00,92.9,55.0,29.89,NW,324,0.0,4.0,28,0.00,,,0.00,weatherlink.com 1.10,2013-07-13 22:11:00,
2013-07-13 17:26:00,92.7,54.0,29.89,NW,312,0.0,4.0,27,0.00,,,0.00,weatherlink.com 1.10,2013-07-13 22:26:00,
2013-07-13 17:41:00,91.6,57.0,29.89,ESE,121,0.0,1.0,31,0.00,,,0.00,weatherlink.com 1.10,2013-07-13 22:41:00,
2013-07-13 17:56:00,89.8,57.0,29.89,ESE,121,0.0,0.0,33,0.00,,,0.00,weatherlink.com 1.10,2013-07-13 22:56:00,
2013-07-13 18:11:00,88.2,57.0,29.89,ESE,121,0.0,0.0,35,0.00,,,0.00,weatherlink.com 1.10,2013-07-13 23:11:00,
2013-07-13 18:26:00,87.0,59.0,29.88,ESE,121,0.0,0.0,39,0.00,,,0.00,weatherlink.com 1.10,2013-07-13 23:26:00,
2013-07-13 18:41:00,86.1,59.0,29.89,ESE,121,0.0,0.0,40,0.00,,,0.00,weatherlink.com 1.10,2013-07-13 23:41:00,
2013-07-13 18:56:00,85.5,59.0,29.89,ESE,121,0.0,0.0,41,0.00,,,0.00,weatherlink.com 1.10,2013-07-13 23:56:00,
2013-07-13 19:11:00,84.9,60.0,29.89,ESE,121,0.0,0.0,43,0.00,,,0.00,weatherlink.com 1.10,2013-07-14 00:11:00,
2013-07-13 19:26:00,84.2,61.0,29.90,ESE,121,0.0,0.0,45,0.00,,,0.00,weatherlink.com 1.10,2013-07-14 00:26:00,
2013-07-13 19:41:00,83.8,60.0,29.90,ESE,121,0.0,0.0,45,0.00,,,0.00,weatherlink.com 1.10,2013-07-14 00:41:00,
2013-07-13 19:56:00,83.5,59.0,29.90,ESE,121,0.0,0.0,44,0.00,,,0.00,weatherlink.com 1.10,2013-07-14 00:56:00,
2013-07-13 20:11:00,82.9,59.0,29.90,ESE,121,0.0,0.0,45,0.00,,,0.00,weatherlink.com 1.10,2013-07-14 01:11:00,
2013-07-13 20:26:00,82.4,60.0,29.90,ESE,121,0.0,0.0,47,0.00,,,0.00,weatherlink.com 1.10,2013-07-14 01:26:00,
2013-07-13 20:41:00,81.8,60.0,29.91,ESE,121,0.0,0.0,47,0.00,,,0.00,weatherlink.com 1.10,2013-07-14 01:41:00,
2013-07-13 20:56:00,81.2,59.0,29.91,ESE,121,0.0,0.0,47,0.00,,,0.00,weatherlink.com 1.10,2013-07-14 01:56:00,
2013-07-13 21:11:00,80.4,59.0,29.91,ESE,121,0.0,0.0,49,0.00,,,0.00,weatherlink.com 1.10,2013-07-14 02:11:00,
2013-07-13 21:26:00,79.8,59.0,29.91,ESE,121,0.0,1.0,49,0.00,,,0.00,weatherlink.com 1.10,2013-07-14 02:26:00,
2013-07-13 21:41:00,79.6,60.0,29.92,ESE,121,0.0,1.0,51,0.00,,,0.00,weatherlink.com 1.10,2013-07-14 02:41:00,
2013-07-13 21:56:00,79.4,60.0,29.92,ESE,121,0.0,0.0,52,0.00,,,0.00,weatherlink.com 1.10,2013-07-14 02:56:00,
2013-07-13 22:11:00,79.1,61.0,29.92,ESE,121,0.0,0.0,54,0.00,,,0.00,weatherlink.com 1.10,2013-07-14 03:11:00,
2013-07-13 22:26:00,78.9,62.0,29.93,SW,217,0.0,2.0,56,0.00,,,0.00,weatherlink.com 1.10,2013-07-14 03:26:00,
2013-07-13 22:41:00,78.7,62.0,29.93,SW,218,0.0,1.0,57,0.00,,,0.00,weatherlink.com 1.10,2013-07-14 03:41:00,
2013-07-13 22:56:00,78.7,63.0,29.94,SW,218,0.0,0.0,59,0.00,,,0.00,weatherlink.com 1.10,2013-07-14 03:56:00,
2013-07-13 23:11:00,78.4,63.0,29.94,SW,218,0.0,0.0,60,0.00,,,0.00,weatherlink.com 1.10,2013-07-14 04:11:00,
2013-07-13 23:26:00,78.1,63.0,29.94,SW,218,0.0,0.0,61,0.00,,,0.00,weatherlink.com 1.10,2013-07-14 04:26:00,
2013-07-13 23:41:00,78.0,64.0,29.94,SW,218,0.0,0.0,62,0.00,,,0.00,weatherlink.com 1.10,2013-07-14 04:41:00,
2013-07-13 23:56:00,77.8,65.0,29.94,SW,218,0.0,0.0,64,0.00,,,0.00,weatherlink.com 1.10,2013-07-14 04:56:00,